"Pseudo-MPEC" for TF00023

Created 2025 Mar 26 12:31:16 UT using Find_Orb

Click here for an explanation of pseudo-MPECs

 
 Astrometry: 
     TF00023* B2025 03 19.09421312 49 45.28 +03 01 25.5    ~3JIV 20.4 VZNEOCPY64
     TF00023  B2025 03 19.12677612 49 47.26 +02 55 31.2    ~3JIV 20.4 VZNEOCPY64
     TF00023  B2025 03 19.14326612 49 48.23 +02 52 32.4    ~3JIV 20.4 VZNEOCPY64
     TF00023  B2025 03 19.15971912 49 49.24 +02 49 32.9    ~3JIV 20.1 VZNEOCPY64

Station data:
(Y64) Transient Survey Telescope (TST), Teide  (N28.298930 W16.510390)
   Canary Islands (Spain).

Orbital elements:  TF00023
   Perihelion 2025 Apr 22.62308 +/- 31.4 TT = 14:57:14 (JD 2460788.12308)
Epoch 2025 Mar 19.0 TT = JDT 2460753.5   Earth MOID: 0.0583      AutoNEOCP
M 347.64251563 +/- 14               (J2000 ecliptic)
n   0.35691461 +/- 0.273            Peri.  216.56337 +/- 41
a   1.96830848 +/- 1                Node     1.91859 +/- 0.8
e   0.4900501 +/- 0.248             Incl.   14.16086 +/- 5.8
P   2.76147                H 24.60  G  0.15   U 11.9  SR
q 1.00373863 +/- 0.11    Q 2.93287832 +/- 38.7
From 4 observations 2025 Mar. 19 (94.3 min); mean residual 0".30
Residuals in arcseconds: 
250319 Y64  .21-  .26+    250319 Y64  .04-  .16+    
250319 Y64  .43+  .59-    250319 Y64  .18-  .17+    

Ephemerides (geocentric):
Date (UTC) HH   RA             Dec           delta  r     elong  mag " sig PA
---- --------  ------------   ------------  ------ ------ -----  --- --------
2025 03 26 13  13 07 18.413   -30 13 05.55  .06485 1.0543 150.0 20.0  30d  62
2025 03 26 14  13 07 27.468   -30 27 41.06  .06479 1.0542 149.8 20.0  30d  62
2025 03 26 15  13 07 36.580   -30 42 17.93  .06474 1.0540 149.6 20.0  31d  62
2025 03 26 16  13 07 45.748   -30 56 56.12  .06468 1.0539 149.4 20.0  31d  62
2025 03 26 17  13 07 54.975   -31 11 35.60  .06463 1.0537 149.2 20.0  31d  62
2025 03 26 18  13 08 04.260   -31 26 16.34  .06458 1.0536 149.0 20.0  31d  62
2025 03 26 19  13 08 13.604   -31 40 58.32  .06453 1.0534 148.8 20.0  32d  62
2025 03 26 20  13 08 23.007   -31 55 41.49  .06448 1.0533 148.5 20.1  32d  62
2025 03 26 21  13 08 32.470   -32 10 25.82  .06443 1.0531 148.3 20.1  32d  62
2025 03 26 22  13 08 41.995   -32 25 11.29  .06438 1.0530 148.1 20.1  32d  62
2025 03 26 23  13 08 51.580   -32 39 57.85  .06434 1.0528 147.9 20.1  33d  62
2025 03 27 00  13 09 01.228   -32 54 45.48  .06429 1.0527 147.7 20.1  33d  62
2025 03 27 01  13 09 10.938   -33 09 34.14  .06425 1.0525 147.5 20.1  33d  62
2025 03 27 02  13 09 20.712   -33 24 23.79  .06421 1.0524 147.3 20.1  33d  63
2025 03 27 03  13 09 30.549   -33 39 14.41  .06417 1.0523 147.0 20.1  34d  63
2025 03 27 04  13 09 40.451   -33 54 05.96  .06413 1.0521 146.8 20.1  34d  63
2025 03 27 05  13 09 50.419   -34 08 58.40  .06409 1.0520 146.6 20.1  34d  63
2025 03 27 06  13 10 00.452   -34 23 51.70  .06405 1.0518 146.4 20.1  34d  63
2025 03 27 07  13 10 10.552   -34 38 45.83  .06402 1.0517 146.2 20.1  35d  63
2025 03 27 08  13 10 20.719   -34 53 40.74  .06398 1.0515 146.0 20.1  35d  63
2025 03 27 09  13 10 30.954   -35 08 36.41  .06395 1.0514 145.7 20.1  35d  63
2025 03 27 10  13 10 41.258   -35 23 32.80  .06392 1.0512 145.5 20.1  35d  63
2025 03 27 11  13 10 51.631   -35 38 29.87  .06389 1.0511 145.3 20.1  35d  63
2025 03 27 12  13 11 02.074   -35 53 27.58  .06386 1.0509 145.1 20.1  35d  63
2025 03 27 13  13 11 12.589   -36 08 25.90  .06383 1.0508 144.9 20.1  36d  63
2025 03 27 14  13 11 23.175   -36 23 24.80  .06381 1.0507 144.6 20.1  36d  63
2025 03 27 15  13 11 33.833   -36 38 24.24  .06378 1.0505 144.4 20.1  36d  64
2025 03 27 16  13 11 44.565   -36 53 24.17  .06376 1.0504 144.2 20.1  36d  64
2025 03 27 17  13 11 55.370   -37 08 24.57  .06373 1.0502 144.0 20.1  36d  64
2025 03 27 18  13 12 06.250   -37 23 25.39  .06371 1.0501 143.8 20.1  37d  64
2025 03 27 19  13 12 17.206   -37 38 26.61  .06369 1.0499 143.5 20.2  37d  64
2025 03 27 20  13 12 28.238   -37 53 28.18  .06367 1.0498 143.3 20.2  37d  64
2025 03 27 21  13 12 39.348   -38 08 30.06  .06366 1.0496 143.1 20.2  37d  64
2025 03 27 22  13 12 50.535   -38 23 32.22  .06364 1.0495 142.9 20.2  37d  64
2025 03 27 23  13 13 01.802   -38 38 34.62  .06362 1.0494 142.7 20.2  38d  64
2025 03 28 00  13 13 13.148   -38 53 37.23  .06361 1.0492 142.4 20.2  38d  64
2025 03 28 01  13 13 24.574   -39 08 40.00  .06360 1.0491 142.2 20.2  38d  64
2025 03 28 02  13 13 36.083   -39 23 42.90  .06359 1.0489 142.0 20.2  38d  64
2025 03 28 03  13 13 47.673   -39 38 45.89  .06358 1.0488 141.8 20.2  39d  64
2025 03 28 04  13 13 59.347   -39 53 48.93  .06357 1.0486 141.5 20.2  39d  64
2025 03 28 05  13 14 11.105   -40 08 51.99  .06356 1.0485 141.3 20.2  39d  64
2025 03 28 06  13 14 22.949   -40 23 55.02  .06355 1.0484 141.1 20.2  40d  64
2025 03 28 07  13 14 34.878   -40 38 58.00  .06355 1.0482 140.9 20.2  40d  64
2025 03 28 08  13 14 46.895   -40 54 00.87  .06354 1.0481 140.6 20.2  40d  65
2025 03 28 09  13 14 58.999   -41 09 03.61  .06354 1.0479 140.4 20.2  40d  65
2025 03 28 10  13 15 11.193   -41 24 06.18  .06354 1.0478 140.2 20.2  41d  65
2025 03 28 11  13 15 23.477   -41 39 08.53  .06354 1.0477 140.0 20.2  41d  65
2025 03 28 12  13 15 35.852   -41 54 10.64  .06354 1.0475 139.7 20.2  41d  65